This demonstration page uses our WeatherBlox Daily Observations layout. Learn more.

Left ArrowRight Arrow

Hourly Observations for July 18, 2020

Temp ( °F °C ) Dew Point ( °F °C ) Humidity (%) Winds ( mph kmh ) Pressure ( in mb ) Visibility ( mi km ) Precip ( " mm )
12:53 am 00:53 Clear 81 27.2 72 22.2 74 74 S 14 22 29.79 1009 10 16 0.00 0.00
1:53 am 01:53 Clear 81 27.2 71 21.7 72 72 S 12 19 29.76 1008 10 16 0.00 0.00
2:53 am 02:53 Clear 81 27.2 69 20.6 67 67 S 12 19 29.74 1007 10 16 0.00 0.00
3:53 am 03:53 Clear 80 26.7 67 19.4 64 64 S 8 13 29.73 1007 10 16 0.00 0.00
4:53 am 04:53 Clear 78 25.6 66 18.9 67 67 S 8 13 29.73 1007 10 16 0.00 0.00
5:53 am 05:53 Clear 76 24.4 65 18.3 69 69 S 7 11 29.73 1007 10 16 0.00 0.00
6:53 am 06:53 Sunny 75 23.9 65 18.3 71 71 S 7 11 29.73 1007 10 16 0.00 0.00
7:53 am 07:53 Sunny 77 25 65 18.3 66 66 SSW 12 19 29.73 1007 10 16 0.00 0.00
8:53 am 08:53 Sunny 80 26.7 66 18.9 62 62 SSW 12 19 29.75 1007 10 16 0.00 0.00
9:53 am 09:53 Sunny 84 28.9 66 18.9 55 55 SSW 12 19 29.74 1007 10 16 0.00 0.00
10:53 am 10:53 Sunny 88 31.1 66 18.9 48 48 SW 8 13 29.74 1007 10 16 0.00 0.00
11:53 am 11:53 Sunny 92 33.3 67 19.4 44 44 SSW 10 17 29.74 1007 10 16 0.00 0.00
12:53 pm 12:53 Sunny 95 35 67 19.4 40 40 WSW 9 15 29.74 1007 10 16 0.00 0.00
1:53 pm 13:53 Sunny 97 36.1 66 18.9 36 36 SW 13 20 29.73 1007 10 16 0.00 0.00
2:53 pm 14:53 Sunny 98 36.7 70 21.1 40 40 SSW 12 19 29.72 1007 10 16 0.00 0.00
3:53 pm 15:53 Sunny 99 37.2 70 21.1 39 39 S 10 17 29.72 1007 10 16 0.00 0.00
4:53 pm 16:53 Sunny 96 35.6 70 21.1 43 43 SSW 8 13 29.74 1007 10 16 0.00 0.00
5:53 pm 17:53 Sunny 94 34.4 70 21.1 46 46 SSW 6 9 29.75 1008 10 16 0.00 0.00
6:53 pm 18:53 Sunny 87 30.6 70 21.1 57 57 N 13 20 29.79 1009 10 16 0.00 0.00
7:53 pm 19:53 Sunny 82 27.8 70 21.1 67 67 N 14 22 29.81 1010 10 16 0.00 0.00
8:53 pm 20:53 Sunny 79 26.1 69 20.6 72 72 N 10 17 29.84 1010 10 16 0.00 0.00
9:53 pm 21:53 Clear 77 25 69 20.6 77 77 N 9 15 29.86 1011 10 16 0.00 0.00
10:53 pm 22:53 Mostly Cloudy 76 24.4 70 21.1 82 82 N 10 17 29.88 1012 10 16 0.00 0.00
11:53 pm 23:53 Mostly Cloudy 75 23.9 70 21.1 84 84 Calm 29.92 1013 10 16 0.00 0.00

Powered by AerisWeather